When you browse on this site, cookies collect data to enhance your experience and personalize the content and advertising you see.
Visit our Privacy Policy to learn more. By continuing to use the site, you agree to this use of cookies and data.
  • En España
  • Lista de países
  • Para 7 días
  • Temperatura del agua
  • El tiempo en el mapa
  • Informadores
  • user-avatar
    Iniciar sesión

    Tiempo cada hora London

    Hoy, 20 Octubre, Domingo

    Tiempo Temperatura Precipitaciones Viento Presión Humedad
    00:00 +9°C° 0 mm 2 mps 753 mmHg 88%
    01:00 +9°C° 0 mm 2 mps 753 mmHg 88%
    02:00 +9°C° 0 mm 1 mps 753 mmHg 88%
    03:00 +9°C° 0 mm 1 mps 753 mmHg 89%
    04:00 +8°C° 0 mm 2 mps 753 mmHg 89%
    05:00 +8°C° 0 mm 2 mps 754 mmHg 89%
    06:00 +7°C° 0 mm 2 mps 754 mmHg 88%
    07:00 +8°C° 0 mm 2 mps 755 mmHg 86%
    08:00 +9°C° 0 mm 3 mps 755 mmHg 83%
    09:00 +10°C° 0 mm 3 mps 755 mmHg 81%
    10:00 +10°C° 0 mm 3 mps 756 mmHg 78%
    11:00 +11°C° 0 mm 4 mps 756 mmHg 76%
    12:00 +12°C° 0 mm 4 mps 756 mmHg 74%
    13:00 +12°C° 0 mm 4 mps 756 mmHg 74%
    14:00 +12°C° 0 mm 4 mps 756 mmHg 75%
    15:00 +12°C° 0 mm 4 mps 756 mmHg 75%
    16:00 +11°C° 0 mm 4 mps 756 mmHg 78%
    17:00 +10°C° 0 mm 4 mps 757 mmHg 82%
    18:00 +8°C° 0 mm 4 mps 757 mmHg 85%
    19:00 +9°C° 0 mm 3 mps 757 mmHg 86%
    20:00 +9°C° 0 mm 3 mps 758 mmHg 88%
    21:00 +9°C° 0 mm 3 mps 758 mmHg 89%
    22:00 +9°C° 0 mm 3 mps 758 mmHg 90%
    23:00 +8°C° 0 mm 4 mps 758 mmHg 90%

    Mañana, 21 Octubre, Lunes

    Tiempo Temperatura Precipitaciones Viento Presión Humedad
    00:00 +10°C° 0 mm 4 mps 758 mmHg 91%
    01:00 +10°C° 0.1 mm 4 mps 758 mmHg 90%
    02:00 +9°C° 0.1 mm 5 mps 758 mmHg 90%
    03:00 +9°C° 0.1 mm 5 mps 758 mmHg 89%
    04:00 +9°C° 0.4 mm 5 mps 758 mmHg 90%
    05:00 +9°C° 0.4 mm 5 mps 758 mmHg 90%
    06:00 +9°C° 0.4 mm 5 mps 759 mmHg 90%
    07:00 +10°C° 0.3 mm 5 mps 759 mmHg 89%
    08:00 +10°C° 0.3 mm 5 mps 759 mmHg 88%
    09:00 +10°C° 0.3 mm 5 mps 760 mmHg 87%
    10:00 +10°C° 0.1 mm 5 mps 760 mmHg 85%
    11:00 +12°C° 0.1 mm 5 mps 761 mmHg 82%
    12:00 +12°C° 0.1 mm 5 mps 761 mmHg 79%
    13:00 +12°C° 0.1 mm 5 mps 761 mmHg 79%
    14:00 +12°C° 0.1 mm 5 mps 762 mmHg 79%
    15:00 +12°C° 0.1 mm 4 mps 762 mmHg 79%
    16:00 +11°C° 0 mm 4 mps 762 mmHg 80%
    17:00 +11°C° 0 mm 4 mps 763 mmHg 81%
    18:00 +11°C° 0 mm 3 mps 763 mmHg 82%
    19:00 +10°C° 0.1 mm 3 mps 764 mmHg 83%
    20:00 +10°C° 0.1 mm 3 mps 764 mmHg 84%
    21:00 +10°C° 0.1 mm 3 mps 764 mmHg 85%
    22:00 +10°C° 0.1 mm 2 mps 765 mmHg 85%
    23:00 +9°C° 0.1 mm 2 mps 765 mmHg 85%

    Pasado mañana, 22 Octubre, Martes

    Tiempo Temperatura Precipitaciones Viento Presión Humedad
    00:00 +10°C° 0.1 mm 1 mps 765 mmHg 85%
    01:00 +10°C° 0 mm 1 mps 765 mmHg 84%
    02:00 +10°C° 0 mm 1 mps 765 mmHg 84%
    03:00 +10°C° 0 mm 1 mps 765 mmHg 83%
    04:00 +9°C° 0 mm 1 mps 765 mmHg 84%
    05:00 +8°C° 0 mm 0 mps 765 mmHg 84%
    06:00 +8°C° 0 mm 0 mps 765 mmHg 84%
    07:00 +9°C° 0 mm 0 mps 766 mmHg 81%
    08:00 +9°C° 0 mm 0 mps 766 mmHg 78%
    09:00 +10°C° 0 mm 0 mps 766 mmHg 75%
    10:00 +12°C° 0 mm 1 mps 767 mmHg 70%
    11:00 +13°C° 0 mm 1 mps 767 mmHg 66%
    12:00 +14°C° 0 mm 1 mps 767 mmHg 61%
    13:00 +14°C° 0 mm 1 mps 766 mmHg 61%
    14:00 +15°C° 0 mm 1 mps 766 mmHg 61%
    15:00 +15°C° 0 mm 1 mps 765 mmHg 61%
    16:00 +14°C° 0 mm 1 mps 765 mmHg 67%
    17:00 +13°C° 0 mm 1 mps 765 mmHg 73%
    18:00 +12°C° 0 mm 1 mps 765 mmHg 80%
    19:00 +11°C° 0 mm 1 mps 765 mmHg 82%
    20:00 +11°C° 0 mm 1 mps 765 mmHg 85%
    21:00 +11°C° 0 mm 1 mps 765 mmHg 88%
    22:00 +11°C° 0 mm 1 mps 764 mmHg 89%
    23:00 +10°C° 0 mm 1 mps 764 mmHg 89%

    23 Octubre, Miércoles

    Tiempo Temperatura Precipitaciones Viento Presión Humedad
    00:00 +10°C° 0 mm 1 mps 764 mmHg 90%
    01:00 +10°C° 0 mm 1 mps 763 mmHg 89%
    02:00 +11°C° 0 mm 1 mps 763 mmHg 87%
    03:00 +11°C° 0 mm 1 mps 762 mmHg 86%
    04:00 +10°C° 0 mm 2 mps 762 mmHg 86%
    05:00 +10°C° 0 mm 2 mps 761 mmHg 86%
    06:00 +12°C° 0 mm 2 mps 761 mmHg 85%
    07:00 +12°C° 0.2 mm 2 mps 761 mmHg 86%
    08:00 +12°C° 0.2 mm 2 mps 760 mmHg 87%
    09:00 +11°C° 0.2 mm 3 mps 760 mmHg 88%
    10:00 +11°C° 0.2 mm 3 mps 759 mmHg 86%
    11:00 +12°C° 0.2 mm 3 mps 759 mmHg 84%
    12:00 +13°C° 0.2 mm 4 mps 758 mmHg 82%
    13:00 +13°C° 0 mm 3 mps 757 mmHg 82%
    14:00 +14°C° 0 mm 3 mps 756 mmHg 81%
    15:00 +15°C° 0 mm 2 mps 756 mmHg 80%
    16:00 +15°C° 0 mm 2 mps 755 mmHg 83%
    17:00 +14°C° 0 mm 2 mps 755 mmHg 86%
    18:00 +13°C° 0 mm 2 mps 754 mmHg 89%
    19:00 +13°C° 0 mm 1 mps 754 mmHg 90%
    20:00 +13°C° 0 mm 1 mps 754 mmHg 90%
    21:00 +13°C° 0 mm 1 mps 754 mmHg 91%
    22:00 +13°C° 0 mm 1 mps 754 mmHg 91%
    23:00 +13°C° 0 mm 1 mps 753 mmHg 92%

    24 Octubre, Jueves

    Tiempo Temperatura Precipitaciones Viento Presión Humedad
    00:00 +13°C° 0 mm 2 mps 753 mmHg 92%
    01:00 +13°C° 0 mm 2 mps 753 mmHg 93%
    02:00 +13°C° 0 mm 2 mps 753 mmHg 94%
    03:00 +13°C° 0 mm 1 mps 753 mmHg 94%
    04:00 +13°C° 0 mm 2 mps 753 mmHg 95%
    05:00 +12°C° 0 mm 2 mps 753 mmHg 96%
    06:00 +12°C° 0 mm 2 mps 753 mmHg 96%
    07:00 +13°C° 0 mm 2 mps 753 mmHg 94%
    08:00 +13°C° 0 mm 2 mps 753 mmHg 91%
    09:00 +14°C° 0 mm 2 mps 754 mmHg 89%
    10:00 +14°C° 0 mm 2 mps 754 mmHg 86%
    11:00 +15°C° 0 mm 2 mps 754 mmHg 82%
    12:00 +15°C° 0 mm 2 mps 755 mmHg 79%
    13:00 +15°C° 0 mm 2 mps 755 mmHg 78%
    14:00 +16°C° 0 mm 3 mps 755 mmHg 76%
    15:00 +16°C° 0 mm 3 mps 755 mmHg 75%
    16:00 +14°C° 0 mm 3 mps 756 mmHg 79%
    17:00 +14°C° 0 mm 2 mps 756 mmHg 83%
    18:00 +13°C° 0 mm 2 mps 756 mmHg 86%
    19:00 +13°C° 0 mm 2 mps 757 mmHg 87%
    20:00 +12°C° 0 mm 2 mps 757 mmHg 87%
    21:00 +12°C° 0 mm 2 mps 758 mmHg 87%
    22:00 +10°C° 0 mm 2 mps 758 mmHg 87%
    23:00 +10°C° 0 mm 2 mps 759 mmHg 86%

    25 Octubre, Viernes

    Tiempo Temperatura Precipitaciones Viento Presión Humedad
    00:00 +11°C° 0 mm 1 mps 759 mmHg 86%
    01:00 +10°C° 0 mm 1 mps 759 mmHg 86%
    02:00 +9°C° 0 mm 2 mps 759 mmHg 86%
    03:00 +9°C° 0 mm 2 mps 759 mmHg 86%
    04:00 +9°C° 0 mm 2 mps 759 mmHg 87%
    05:00 +9°C° 0 mm 2 mps 759 mmHg 88%
    06:00 +9°C° 0 mm 2 mps 759 mmHg 90%
    07:00 +10°C° 0 mm 2 mps 759 mmHg 87%
    08:00 +12°C° 0 mm 2 mps 760 mmHg 85%
    09:00 +12°C° 0 mm 3 mps 760 mmHg 83%
    10:00 +13°C° 0 mm 3 mps 759 mmHg 80%
    11:00 +14°C° 0 mm 4 mps 759 mmHg 76%
    12:00 +15°C° 0 mm 4 mps 759 mmHg 73%
    13:00 +15°C° 0 mm 5 mps 758 mmHg 74%
    14:00 +14°C° 0 mm 5 mps 758 mmHg 75%
    15:00 +14°C° 0 mm 6 mps 757 mmHg 76%
    16:00 +14°C° 0 mm 6 mps 756 mmHg 79%
    17:00 +14°C° 0 mm 6 mps 756 mmHg 82%
    18:00 +14°C° 0 mm 7 mps 755 mmHg 85%
    19:00 +15°C° 0.1 mm 7 mps 754 mmHg 83%
    20:00 +15°C° 0.1 mm 8 mps 754 mmHg 81%
    21:00 +16°C° 0.1 mm 9 mps 753 mmHg 79%
    22:00 +16°C° 0 mm 9 mps 753 mmHg 80%
    23:00 +16°C° 0 mm 9 mps 753 mmHg 82%
    Mostrar más